This is the latest recevied weather packets stored in our database for station/object K0KDS. If no packets are shown the sender has not sent any weather packets the latest 1 day(s).
| Time | Temp. | Humidity | Pressure | Rain* | Wind** | Luminosity | Snow |
|---|---|---|---|---|---|---|---|
| 1778111249 | 13.33° C | 29% | 1013.7 hPa | 0 mm | - | - | - |
| 1778109449 | 13.33° C | 32% | 1013.8 hPa | 0 mm | - | - | - |
| 1778108549 | 12.78° C | 31% | 1014 hPa | 0 mm | - | - | - |
| 1778106749 | 13.33° C | 33% | 1014 hPa | 0 mm | - | - | - |
| 1778104949 | 13.33° C | 32% | 1014 hPa | 0 mm | - | - | - |
| 1778102249 | 13.33° C | 33% | 1014.2 hPa | 0 mm | - | - | - |
| 1778101349 | 13.33° C | 32% | 1014.4 hPa | 0 mm | - | - | - |
| 1778100449 | 13.33° C | 31% | 1014.6 hPa | 0 mm | - | - | - |
| 1778099549 | 13.33° C | 32% | 1014.7 hPa | 0 mm | - | - | - |
| 1778098649 | 13.33° C | 35% | 1014.7 hPa | 0 mm | - | - | - |
| 1778095949 | 13.33° C | 33% | 1015 hPa | 0 mm | - | - | - |
| 1778095049 | 12.78° C | 34% | 1015.1 hPa | 0 mm | - | - | - |
| 1778094149 | 12.22° C | 35% | 1015.2 hPa | 0 mm | - | - | - |
| 1778092349 | 11.67° C | 38% | 1015.4 hPa | 0 mm | - | - | - |
| 1778091449 | 11.11° C | 37% | 1015.4 hPa | 0 mm | - | - | - |
| 1778090549 | 11.67° C | 35% | 1015.5 hPa | 0 mm | - | - | - |
| 1778088749 | 10.56° C | 40% | 1015.8 hPa | 0 mm | - | - | - |
| 1778087849 | 10.56° C | 40% | 1015.9 hPa | 0 mm | - | - | - |
| 1778086949 | 10.56° C | 40% | 1015.9 hPa | 0 mm | - | - | - |
| 1778085149 | 10.56° C | 39% | 1015.9 hPa | 0 mm | - | - | - |
| 1778084249 | 10.56° C | 41% | 1015.9 hPa | 0 mm | - | - | - |
| 1778082449 | 10.56° C | 41% | 1015.7 hPa | 0 mm | - | - | - |
| 1778079749 | 10° C | 47% | 1015.6 hPa | 0 mm | - | - | - |
| 1778078849 | 9.44° C | 48% | 1015.6 hPa | 0 mm | - | - | - |
| 1778075249 | 7.22° C | 51% | 1015.5 hPa | 0 mm | - | - | - |
* Rain latest hour (hover to see other rain measurements)
** Current wind speed in m/s (hover to see current wind gust speed)